Location: Oroua River
(40.4333°S, 175.4333°E)
Time: 15:31:36
(UTC+00:00)

SL-16 R/B - Pass Details

Date: 03 February 2023
Orbit: 986 x 1006 km, 99.6° (Epoch: 22 March)

Event Time Altitude Azimuth Distance (km) Brightness Sun altitude
Rises 16:54:11 0° 179° (S) 3,751 6.0 -6.8°
Reaches altitude 10° 16:57:17 10° 194° (SSW) 2,791 5.1 -6.3°
Maximum altitude 17:01:46 21° 240° (WSW) 2,077 4.0 -5.5°
Drops below altitude 10° 17:06:13 10° 286° (WNW) 2,761 4.2 -4.8°
Enters shadow 17:07:41 - 294° (WNW) 3,186 4.5 -4.5°
